Location: Mentone
(34.5413°N, 85.5351°W)
Time: 22:29:19
(UTC-05:00)

Cosmos 2150 Rocket - Visible Passes

Search period start: 27 July 2015 00:00
Search period end: 06 August 2015 00:00
Orbit: 749 x 809 km, 74.0° (Epoch: 27 July)

Date Brightness Start Highest point End Pass type
(mag) Time Alt. Az. Time Alt. Az. Time Alt. Az.
27 Jul 6.7 01:03:46 10° WNW 01:03:54 10° WNW 01:03:54 10° WNW visible
27 Jul 5.4 22:46:36 10° N 22:50:13 28° NE 22:50:13 28° NE visible
28 Jul 6.3 00:29:01 10° NW 00:30:43 18° WNW 00:30:43 18° WNW visible
28 Jul 5.8 22:13:37 10° NNE 22:17:03 19° ENE 22:17:03 19° ENE visible
28 Jul 5.7 23:54:50 10° NNW 23:57:33 28° NW 23:57:33 28° NW visible
29 Jul 6.2 21:41:30 10° NE 21:43:09 12° NE 21:43:56 11° ENE visible
29 Jul 5.1 23:20:56 10° NNW 23:24:25 42° NNW 23:24:25 42° NNW visible
30 Jul 4.7 22:47:15 10° N 22:51:19 49° NNE 22:51:19 49° NNE visible
31 Jul 4.8 22:13:48 10° N 22:18:14 38° NE 22:18:14 38° NE visible
31 Jul 6.3 23:56:55 10° NW 23:58:44 16° WNW 23:58:44 16° WNW visible
01 Aug 5.3 21:40:37 10° N 21:44:48 24° ENE 21:45:11 24° ENE visible
01 Aug 5.6 23:22:29 10° NW 23:25:41 28° WNW 23:25:41 28° WNW visible
02 Aug 5.8 21:07:54 10° NNE 21:10:47 15° ENE 21:12:10 14° ENE visible
02 Aug 4.7 22:48:26 10° NNW 22:52:40 49° WNW 22:52:40 49° WNW visible
03 Aug 3.9 22:14:39 10° NNW 22:19:41 80° NNE 22:19:41 80° NNE visible
04 Aug 4.2 21:41:04 10° N 21:46:12 51° ENE 21:46:43 49° E visible
04 Aug 6.4 23:25:05 10° WNW 23:27:14 15° W 23:27:14 15° W visible
05 Aug 4.9 21:07:43 10° N 21:12:20 31° ENE 21:13:49 27° E visible
05 Aug 5.7 22:50:15 10° NW 22:54:19 25° W 22:54:19 25° W visible
